Lake Ray Hubbard Weather Center

Moon Phase Calendar



Lake Ray Hubbard Water Level
Online Cameras

 


      

Current Conditions in Rockwall
1/27/2022 3:14:07 PM

50°F
Feels Like 47
Clouds
Humidity
50%
Pressure
30.09"
Wind
1 mph (NNW)
Dew Point
32°F
UV Index
1/10 (Low)
Visibility
6 mi

Hourly Forecast

Date & Time Thu, Jan 27
3:00 PM
Thu, Jan 27
4:00 PM
Thu, Jan 27
5:00 PM
Thu, Jan 27
6:00 PM
Thu, Jan 27
7:00 PM
Thu, Jan 27
8:00 PM
Thu, Jan 27
9:00 PM
Thu, Jan 27
10:00 PM
Thu, Jan 27
11:00 PM
Fri, Jan 28
12:00 AM
Fri, Jan 28
1:00 AM
Fri, Jan 28
2:00 AM
Fri, Jan 28
3:00 AM
Fri, Jan 28
4:00 AM
Fri, Jan 28
5:00 AM
Fri, Jan 28
6:00 AM
Fri, Jan 28
7:00 AM
Fri, Jan 28
8:00 AM
Fri, Jan 28
9:00 AM
Fri, Jan 28
10:00 AM
Fri, Jan 28
11:00 AM
Fri, Jan 28
12:00 PM
Fri, Jan 28
1:00 PM
Fri, Jan 28
2:00 PM
Fri, Jan 28
3:00 PM
Fri, Jan 28
4:00 PM
Fri, Jan 28
5:00 PM
Fri, Jan 28
6:00 PM
Fri, Jan 28
7:00 PM
Fri, Jan 28
8:00 PM
Fri, Jan 28
9:00 PM
Fri, Jan 28
10:00 PM
Fri, Jan 28
11:00 PM
Sat, Jan 29
12:00 AM
Sat, Jan 29
1:00 AM
Sat, Jan 29
2:00 AM
Sat, Jan 29
3:00 AM
Sat, Jan 29
4:00 AM
Sat, Jan 29
5:00 AM
Sat, Jan 29
6:00 AM
Sat, Jan 29
7:00 AM
Sat, Jan 29
8:00 AM
Sat, Jan 29
9:00 AM
Sat, Jan 29
10:00 AM
Sat, Jan 29
11:00 AM
Sat, Jan 29
12:00 PM
Sat, Jan 29
1:00 PM
Sat, Jan 29
2:00 PM
Condition
Clouds

Clouds

Clouds

Clouds

Clouds

Clear

Clear

Clear

Clear

Clear

Clear

Clear

Clouds

Clouds

Clouds

Clouds

Clear

Clear

Clear

Clear

Clear

Clear

Clear

Clear

Clear

Clear

Clear

Clear

Clear

Clear

Clear

Clear

Clear

Clear

Clear

Clear

Clear

Clear

Clear

Clear

Clear

Clear

Clear

Clear

Clear

Clear

Clear

Clear
Temperature 50°F51°F51°F49°F47°F45°F44°F42°F41°F40°F39°F38°F38°F37°F36°F36°F35°F35°F40°F44°F47°F50°F51°F53°F53°F53°F52°F47°F45°F44°F43°F42°F42°F42°F41°F41°F40°F40°F40°F39°F39°F40°F45°F50°F54°F58°F60°F63°F
Feels Like 47°F48°F48°F46°F43°F41°F39°F37°F35°F34°F33°F31°F30°F29°F28°F28°F27°F28°F32°F37°F42°F45°F48°F49°F50°F50°F48°F44°F42°F41°F40°F39°F39°F39°F38°F37°F36°F35°F34°F34°F33°F34°F40°F47°F51°F54°F57°F60°F
Cloudiness 100%100%100%100%20%0%3%3%4%4%9%8%33%26%20%17%0%1%1%1%0%0%0%0%0%0%0%0%0%0%0%0%0%0%0%0%0%0%0%0%0%0%0%0%0%0%0%0%
Visibility 6 mi6 mi6 mi6 mi6 mi6 mi6 mi6 mi6 mi6 mi6 mi6 mi6 mi6 mi6 mi6 mi6 mi6 mi6 mi6 mi6 mi6 mi6 mi6 mi6 mi6 mi6 mi6 mi6 mi6 mi6 mi6 mi6 mi6 mi6 mi6 mi6 mi6 mi6 mi6 mi6 mi6 mi6 mi6 mi6 mi6 mi6 mi6 mi
Precipitation 0%0%0%0%0%0%0%0%0%0%0%0%0%0%0%0%0%0%0%0%0%0%0%0%0%0%0%0%0%0%0%0%0%0%0%0%0%0%0%0%0%0%0%0%0%0%0%0%
Humidity 50%47%46%47%49%52%55%58%62%68%73%75%73%72%72%72%73%71%59%50%42%37%33%30%27%26%27%32%35%37%39%41%42%42%43%44%44%44%44%45%46%45%39%31%27%24%22%20%
Dew Point 32°F31°F31°F30°F29°F28°F28°F28°F29°F30°F31°F31°F29°F28°F28°F27°F27°F27°F26°F26°F25°F25°F23°F22°F20°F19°F19°F19°F19°F20°F20°F20°F20°F20°F20°F20°F20°F20°F19°F19°F19°F20°F21°F20°F21°F21°F21°F21°F
Pressure 30.09"30.12"30.15"30.18"30.24"30.3"30.33"30.36"30.39"30.39"30.39"30.42"30.42"30.42"30.45"30.47"30.5"30.5"30.53"30.53"30.53"30.5"30.47"30.45"30.42"30.42"30.42"30.42"30.42"30.42"30.42"30.45"30.42"30.42"30.39"30.39"30.36"30.36"30.33"30.33"30.36"30.36"30.33"30.33"30.3"30.27"30.24"30.18"
Wind Speed 5.4 mph5.5 mph6.4 mph6.7 mph7.2 mph7.7 mph8.4 mph8.3 mph9 mph9.5 mph9.5 mph9.7 mph11 mph11.5 mph10.9 mph10.5 mph10.1 mph9.9 mph11.6 mph12.2 mph12.2 mph13 mph13.2 mph13.6 mph13.6 mph13.9 mph11.4 mph7.7 mph6.7 mph6 mph5.9 mph5.2 mph4.2 mph4.5 mph5.4 mph6.4 mph7.3 mph7.6 mph7.8 mph7.9 mph8.3 mph8.2 mph9.3 mph10.7 mph10.9 mph11.8 mph12.7 mph13 mph
Wind
Direction
311°
NW
324°
NW
330°
NNW
343°
NNW
352°
N

N

N

N
360°
N

N

N
356°
N
352°
N
353°
N
350°
N
344°
NNW
344°
NNW
344°
NNW
348°
NNW
348°
NNW
346°
NNW
342°
NNW
334°
NNW
330°
NNW
328°
NNW
335°
NNW
338°
NNW
336°
NNW
337°
NNW
328°
NNW
320°
NW
308°
NW
275°
W
236°
SW
213°
SSW
208°
SSW
215°
SW
216°
SW
214°
SW
211°
SSW
209°
SSW
211°
SSW
220°
SW
237°
WSW
240°
WSW
238°
WSW
237°
WSW
237°
WSW

Daily Forecast

Date High Low Precip. Humidity
Today
Jan 27

Clouds
51 °F
36 °F
0%
41%
Friday
Jan 28

Clear
53 °F
35 °F
0%
37%
Saturday
Jan 29

Clear
64 °F
39 °F
0%
24%
Sunday
Jan 30

Clear
66 °F
45 °F
0%
25%
Monday
Jan 31

Rain
57 °F
48 °F
98%
87%
Tuesday
Feb 1

Clouds
61 °F
51 °F
26%
84%
Wednesday
Feb 2

Rain
66 °F
28 °F
34%
61%
Thursday
Feb 3

Clear
34 °F
18 °F
30%
34%
Friday
Feb 4

Clouds
36 °F
22 °F
0%
42%
Saturday
Feb 5

Clear
43 °F
24 °F
0%
29%
Sunday
Feb 6

Clear
48 °F
27 °F
0%
27%
Monday
Feb 7

Rain
38 °F
33 °F
100%
53%
Tuesday
Feb 8

Rain
40 °F
34 °F
100%
86%
Wednesday
Feb 9

Clouds
47 °F
30 °F
0%
66%
Thursday
Feb 10

Rain
40 °F
35 °F
100%
92%
Friday
Feb 11

Rain
40 °F
36 °F
100%
92%

Temperature 8-14 Day Outlook



Precipitation 8-14 Day Outlook




Quick Links
Lake Ray Hubbard News
Lake Ray Hubbard Photos
Lake Ray Hubbard Videos




About Us
Contact Us
Site Map
Search Site
Advertise With Us
   
RayHubbard.USLakes.info
THE LAKE RAY HUBBARD WEBSITE

Copyright 2022, Lakes Online
Privacy    |    Legal